Simultaneous Nadir Overpasses (SNOs) Predictions

Prediction of SNOs between AQUA and METOP-C Satellite Orbit:

Table of predicted SNOs for the next 14.0 days since TLE Epoch: 3/6/2021
Index Date (AQUA) Time (AQUA) Lat,Lon (AQUA) SZA (AQUA ) Date (METOP-C) Time (METOP-C) Lat,Lon (METOP-C) SZA (METOP-C ) Distance(km) Time Diff (sec)
1 03/06/2021 14:10:26 73.70, -38.10 79.21 03/06/2021 14:09:45 73.69, -38.09 79.21 0.61 41
2 03/06/2021 14:59:53 -73.77, 129.37 100.73 03/06/2021 15:00:26 -73.76, 129.38 100.75 1.90 33
3 03/09/2021 09:44:41 73.70, 28.34 78.10 03/09/2021 09:44:07 73.71, 28.36 78.13 1.78 34
4 03/09/2021 10:34:08 -73.77,-164.18 101.83 03/09/2021 10:34:48 -73.77,-164.18 101.84 0.22 40
5 03/12/2021 05:18:56 73.70, 94.76 77.00 03/12/2021 05:18:29 73.73, 94.80 77.03 2.81 27
6 03/12/2021 06:08:23 -73.78, -97.76 102.94 03/12/2021 06:09:10 -73.78, -97.74 102.94 0.78 47
7 03/15/2021 00:03:31 -73.12, -5.22 104.73 03/15/2021 00:02:24 -73.07, -7.61 104.67 77.76 67
8 03/15/2021 00:53:10 73.72, 161.16 75.90 03/15/2021 00:52:50 73.74, 161.24 75.92 3.25 20
9 03/15/2021 01:42:37 -73.80, -31.36 104.03 03/15/2021 01:43:31 -73.79, -31.31 104.05 1.70 54
10 03/17/2021 19:37:51 -73.41, 60.63 105.54 03/17/2021 19:36:40 -73.37, 59.47 105.52 36.91 71
11 03/17/2021 20:27:24 73.70,-132.35 74.76 03/17/2021 20:27:13 73.70,-132.44 74.77 2.85 11
12 03/17/2021 21:16:51 -73.77, 35.13 105.18 03/17/2021 21:17:53 -73.80, 35.12 105.16 3.12 62



Historial Predications of SNOs between AQUA and METOP-C
